Location: Claremont
(33.9858°S, 18.4575°E)
Time: 19:51:05
(UTC+00:00)

deb Transit VC - Pass Details

Date: 28 September 2021
Orbit: 840 x 910 km, 90.5° (Epoch: 27 October)

Event Time Altitude Azimuth Distance (km) Brightness Sun altitude
Rises 16:59:05 0° 351° (N) 3,478 ? -3.3°
Reaches altitude 10° 17:01:34 10° 346° (NNW) 2,536 ? -3.9°
Maximum altitude 17:07:06 51° 270° (W) 1,098 ? -5.0°
Drops below altitude 10° 17:12:36 10° 195° (SSW) 2,522 ? -6.1°
Sets 17:15:05 0° 189° (S) 3,456 ? -6.6°
